Regional Weather Roundup
Issued by NWS

Current Version | Previous Version | Text Only | Print | Product List | Glossary On
Versions: 1 2 3 4 5 6 7 8 9 10 11 12 13 14 15 16 17 18 19 20 21 22 23 24 25 26 27 28 29 30 31 32 33 34 35 36 37 38 39 40 41 42 43 44 45 46 47 48 49 50
000
ASCA42 TJSJ 242310
RWRPR
PUERTO RICO/U.S. VIRGIN ISLANDS HOURLY WEATHER ROUNDUP
NATIONAL WEATHER SERVICE SAN JUAN PR
700 PM AST FRI FEB 24 2017

PRZ001>002-007>008-010-250000-
PUERTO RICO

CITY           SKY/WX    TMP DP  RH WIND       PRES   REMARKS
SAN JUAN LMM   PTCLDY    82  66  57 S9        29.90S
AGUADILLA      CLOUDY    77  70  78 E9        29.92R
CEIBA          CLEAR     79  68  69 S7        29.95R
$$

VIZ001>002-250000-
U.S. VIRGIN ISLANDS

CITY           SKY/WX    TMP DP  RH WIND       PRES   REMARKS
CHARLOTTE AMA  CLEAR     79  70  73 SE8       29.93R
CHRISTIANSTED  PTCLDY    79  66  65 SE5       29.94S
$$

HOURLY WEATHER ROUNDUP FOR THE NEWS MEDIA

CITY           SKY/WX    TMP DP  RH WIND       PRES   REMARKS
ORLANDO        PTCLDY    76  62  62 E12       29.81R
NEW YORK       PTCLDY    53  53 100 S21G29    29.88S
NEWARK         MOCLDY    67  53  61 S8        29.84S
CHICAGO        CLOUDY    40  37  89 NW9       29.50R FOG     WCI  34
HARTFORD       CLEAR     54  49  83 S9        29.93R
BOSTON         PTCLDY    62  53  72 S17       29.87R
DALLAS         SUNNY     62  31  31 NW12      29.89R
PHILADELPHIA   PTCLDY    67  54  63 S14       29.85F
LOS ANGELES    SUNNY     58  34  40 W15       30.14S
WASHINGTON DC  PTCLDY    71  50  47 S13G23    29.79S


USA.gov is the U.S. government's official web portal to all federal, state and local government web resources and services.